This demonstration page uses our WeatherBlox Daily Observations layout. Learn more.

41.55636, -103.73856

Hourly Observations for December 7, 2016

Temp ( °F °C ) Dew Point ( °F °C ) Humidity (%) Winds ( mph kmh ) Pressure ( in mb ) Visibility ( mi km ) Precip ( " mm )
12:53 am 00:53 Cloudy 13 -10.6 -1 -18.3 54 54 NNE 13 20 30.21 1023 10 16.0934 0 0
1:53 am 01:53 Cloudy 12 -11.1 1 -17.2 61 61 NNE 7 11 30.23 1024 8 12.87472 0 0
2:53 am 02:53 Cloudy with Light Snow 11 -11.7 4 -15.6 73 73 NNW 9 15 30.26 1025 2.5 4.02335 0 0.0254
3:00 am 03:00 Cloudy with Light Snow 10 -12 5 -15 79 79 NNW 9 15 30.45 1031 2 3.21868 0 0
3:07 am 03:07 Cloudy with Light Snow 11 -11.7 5 -15 77 77 N 10 17 30.45 1031 1.5 2.41401 0.01 0.254
3:26 am 03:26 Cloudy with Light Snow 11 -11.7 4 -15.6 73 73 N 10 17 30.45 1031 2 3.21868 0.01 0.254
3:39 am 03:39 Cloudy with Light Snow 11 -11.7 5 -15 77 77 NNW 8 13 30.45 1031 1.5 2.41401 0.01 0.254
3:53 am 03:53 Cloudy with Light Snow 10 -12.2 5 -15 80 80 NNW 10 17 30.29 1026 1.25 2.011675 0.02 0.508
4:23 am 04:23 Cloudy with Light Snow 10 -12.2 4 -15.6 76 76 N 8 13 30.45 1031 1.25 2.011675 0 0.0254
4:35 am 04:35 Cloudy with Light Snow 10 -12.2 4 -15.6 76 76 N 10 17 30.45 1031 1.5 2.41401 0.01 0.254
4:53 am 04:53 Cloudy with Light Snow 9 -12.8 4 -15.6 80 80 NNW 9 15 30.33 1027 1.75 2.816345 0.01 0.254
5:03 am 05:03 Cloudy with Light Snow 10 -12 3 -16 72 72 NNW 10 17 30.45 1031 2 3.21868 0 0
5:17 am 05:17 Cloudy with Light Snow 10 -12.2 4 -15.6 76 76 NNW 8 13 30.48 1032 1.75 2.816345 0 0.0254
5:51 am 05:51 Cloudy with Light Snow 9 -13 3 -16 78 78 WNW 9 15 30.5 1033 2.5 4.02335 0.01 0.254
5:53 am 05:53 Cloudy with Light Snow 9 -12.8 3 -16.1 77 77 WNW 13 20 30.37 1029 2.5 4.02335 0.01 0.254
6:03 am 06:03 Cloudy with Light Snow 9 -13 1 -17 72 72 WNW 12 19 30.53 1034 2.5 4.02335 0 0
6:27 am 06:27 Cloudy with Light Snow 7 -13.9 1 -17.2 76 76 WNW 15 24 30.56 1035 1.75 2.816345 0.01 0.254
6:53 am 06:53 Cloudy with Light Snow 7 -13.9 1 -17.2 76 76 NW 13 20 30.41 1030 1.75 2.816345 0.01 0.254
7:42 am 07:42 Cloudy with Light Snow 7 -14 0 -18 72 72 NW 12 19 30.59 1036 4 6.43736 0 0
7:53 am 07:53 Cloudy with Light Snow 6 -14.4 0 -17.8 76 76 WNW 12 19 30.45 1031 2.5 4.02335 0.01 0.254
8:02 am 08:02 Cloudy with Haze 7 -14 0 -18 72 72 WNW 10 17 30.59 1036 4 6.43736 0 0
8:53 am 08:53 Cloudy with Light Snow 7 -13.9 0 -17.8 73 73 WNW 12 19 30.48 1032 3 4.82802 0 0.0254
9:21 am 09:21 Cloudy with Light Snow 9 -12.8 1 -17.2 70 70 WNW 14 22 30.62 1037 2 3.21868 0 0.0254
9:29 am 09:29 Cloudy with Light Snow 9 -12.8 1 -17.2 70 70 WNW 14 22 30.62 1037 1.75 2.816345 0 0.0254
9:36 am 09:36 Cloudy with Light Snow 10 -12 1 -17 67 67 WNW 16 26 30.62 1037 2.5 4.02335 0 0
9:53 am 09:53 Cloudy with Light Snow 10 -12.2 1 -17.2 67 67 WNW 16 26 30.48 1032 3 4.82802 0 0.0254
10:53 am 10:53 Cloudy 12 -11.1 1 -17.2 61 61 NW 20 31 30.49 1033 10 16.0934 0 0.0254
11:53 am 11:53 Cloudy 14 -10 1 -17.2 56 56 NW 15 24 30.48 1032 10 16.0934 0 0
12:53 pm 12:53 Mostly Cloudy 14 -10 0 -17.8 53 53 NW 18 30 30.49 1033 10 16.0934 0 0
1:53 pm 13:53 Sunny 14 -10 0 -17.8 53 53 WNW 18 30 30.5 1033 10 16.0934 0 0
2:53 pm 14:53 Sunny 13 -10.6 -1 -18.3 54 54 NW 18 30 30.54 1034 10 16.0934 0 0
3:53 pm 15:53 Sunny 11 -11.7 -2 -18.9 55 55 NW 12 19 30.57 1035 10 16.0934 0 0
4:53 pm 16:53 Clear 7 -13.9 -3 -19.4 63 63 WNW 10 17 30.61 1037 10 16.0934 0 0
5:53 pm 17:53 Clear 7 -13.9 -4 -20 60 60 WNW 14 22 30.63 1037 10 16.0934 0 0
6:53 pm 18:53 Clear 4 -15.6 -5 -20.6 66 66 W 9 15 30.66 1038 10 16.0934 0 0
7:53 pm 19:53 Clear 0 -17.8 -7 -21.7 72 72 WNW 9 15 30.7 1040 10 16.0934 0 0
8:53 pm 20:53 Clear -2 -18.9 -8 -22.2 75 75 WNW 7 11 30.71 1040 10 16.0934 0 0
9:53 pm 21:53 Clear -2 -18.9 -8 -22.2 75 75 NW 8 13 30.73 1041 10 16.0934 0 0
10:53 pm 22:53 Clear -2 -18.9 -10 -23.3 68 68 WNW 9 15 30.73 1041 10 16.0934 0 0
11:53 pm 23:53 Clear -6 -21.1 -12 -24.4 75 75 WNW 7 11 30.75 1041 10 16.0934 0 0

Powered by AerisWeather